Location: Observatoire
(46.1952°N, 5.3391°E)
Time: 22:50:03
(UTC+01:00)

A-11 Canister half - Pass Details

Date: 17 February 2026
Orbit: 1525 x 1683 km, 47.3° (Epoch: 9 March)

Event Time Altitude Azimuth Distance (km) Brightness Sun altitude
Rises 22:34:27 0° 290° (WNW) 4,677 12.2 -44.8°
Reaches altitude 10° 22:37:31 10° 287° (WNW) 3,694 11.5 -45.2°
Enters shadow 22:42:58 39° 272° (W) 2,142 9.8 -46.0°
Maximum altitude 22:46:38 63° 210° (SSW) 1,684 - -46.4°
Drops below altitude 10° 22:55:54 10° 132° (SE) 3,751 - -47.6°
Sets 22:59:02 0° 129° (SE) 4,754 - -48.0°
